Regional Weather Roundup
Issued by NWS

Home | Current Version | Previous Version | Graphics & Text | Print | Product List | Glossary On
Versions: 1 2 3 4 5 6 7 8 9 10 11 12 13 14 15 16 17 18 19 20 21 22 23 24 25 26 27 28 29 30 31 32 33 34 35 36 37 38 39 40 41 42 43 44 45 46 47 48 49 50
000
ASUS45 KTFX 021010
RWRMT
MONTANA REGIONAL WEATHER ROUNDUP
NATIONAL WEATHER SERVICE GREAT FALLS MT
400 AM MDT THU JUL 02 2015

NOTE: "FAIR" INDICATES FEW OR NO CLOUDS BELOW 12000 FEET WITH NO
SIGNIFICANT WEATHER AND/OR OBSTRUCTIONS TO VISIBILITY.

MTZ001>007-043-021100-
WEST OF THE DIVIDE

CITY           SKY/WX    TMP DP  RH WIND       PRES   REMARKS
KALISPELL      SUNNY     67  52  58 NE9       30.09R
MISSOULA       CLEAR     72  51  47 SE13      30.10R
BUTTE          CLEAR     53  46  77 SE5       30.26R
MULLAN PASS    CLEAR     68  37  32 CALM      30.23F
DEER LODGE       N/A     61  52  72 NW7       30.25S
EUREKA           N/A     63  54  72 CALM      30.10S
HAMILTON         N/A     61  43  51 S5        30.12R
PLAINS           N/A     59  46  61 CALM      30.06R
RONAN            N/A     60  55  83 E2        30.12R
$$

MTZ008-052>055-021100-
SOUTHWEST MONTANA

CITY           SKY/WX    TMP DP  RH WIND       PRES   REMARKS
BOZEMAN        CLEAR     56  51  84 S3        30.19R
DILLON         CLEAR     57  48  72 SE5       30.21R
W YELLOWSTONE  CLEAR     46  41  81 CALM      30.27S
THREE FORKS      N/A     58  58 100 CALM      30.16S
TWIN BRIDGES     N/A     65  48  53 N12       30.15S
$$

MTZ009-010-012-014-046-048-049-054-021100-
EAST SLOPES AND CENTRAL MONTANA

CITY           SKY/WX    TMP DP  RH WIND       PRES   REMARKS
CUT BANK       CLEAR     52  50  93 NW7       30.21S
GREAT FALLS    CLEAR     56  50  80 SW6       30.19R
MALMSTROM AFB  CLEAR     57  52  84 SW6       30.19R
HELENA         PTCLDY    67  51  56 SW8       30.18S
$$

MTZ011-013-016-021-045-047-050-051-021100-
NORTH CENTRAL MONTANA

CITY           SKY/WX    TMP DP  RH WIND       PRES   REMARKS
HAVRE          CLEAR     53  52  96 SW6       30.13R
LEWISTOWN      CLEAR     57  52  83 SW5       30.20S
CHINOOK          N/A     57  55  94 W3        30.12R
FORT BENTON      N/A     61  54  77 SW3       30.17R
$$

MTZ017>020-022>027-061-062-021100-
NORTHEAST MONTANA

CITY           SKY/WX    TMP DP  RH WIND       PRES   REMARKS
GLASGOW        CLEAR     57  52  83 NW8       30.05S
JORDAN           N/A     57  53  86 W5        30.08S
SIDNEY         CLEAR     59  54  82 CALM      30.02R
WOLF POINT     CLEAR     57  54  89 SW7       30.03S
MALTA            N/A     57  53  86 CALM      30.04S
PLENTYWOOD       N/A     54  54 100 CALM      30.01R
SCOBEY           N/A     54  50  86 CALM      30.02S
$$

MTZ028>42-056>058-021100-
SOUTHCENTRAL AND SOUTHEAST MONTANA

CITY           SKY/WX    TMP DP  RH WIND       PRES   REMARKS
BAKER          PTCLDY    58  56  93 CALM      30.07S
BILLINGS       PTCLDY    64  53  67 NW8       30.15S
LIVINGSTON     PTCLDY    62  52  69 E5        30.20R
MILES CITY     CLEAR     61  56  83 CALM      30.07R
EKALAKA          N/A     58  55  89 S1        30.06F
FORSYTH          N/A     63  63 100 SW3       30.08S
LAUREL           N/A     64  52  65 CALM      30.13R
ROUNDUP          N/A     63  53  69 CALM      30.06R
$$

REGIONAL REPORTS...DAKOTAS

CITY           SKY/WX    TMP DP  RH WIND       PRES   REMARKS
WILLISTON      CLEAR     58  54  86 W9        29.99S
MINOT          PTCLDY    61  59  93 CALM      29.93S FOG
DICKINSON      PTCLDY    59  57  93 NW8       30.00S FOG
BEACH          FAIR      54  54 100 CALM      30.05S
CROSBY         FAIR      59  59 100 W5        29.99R FOG
BISMARCK       TSTM      64  62  93 SW8       29.97R FOG
GRAND FORKS    CLEAR     59  56  89 S5        29.95R
FARGO          CLEAR     59  55  87 SE7       29.98R
BUFFALO SD       N/A     59  56  89 NW9       29.99S
RAPID CITY     MOCLDY    61  59  93 NW9       30.02S
$$

REGIONAL REPORTS...WYOMING/IDAHO/WASHINGTON

CITY           SKY/WX    TMP DP  RH WIND       PRES   REMARKS
GILLETTE       PTCLDY    61  57  87 W7        30.15R
SHERIDAN       CLEAR     57  52  83 CALM      30.14S
BUFFALO WY     CLEAR     59  53  80 SW5       30.20S
CODY           CLEAR     64  45  48 NW8       30.21S
YELLOWSTONE LA   N/A     46  40  79 CALM      30.37S
IDAHO FALLS    CLEAR     59  54  83 N7        30.09S
SALMON         CLEAR     57  43  58 NE3       30.12R
BOISE          MOCLDY    74  49  41 SW3       29.96R
SPOKANE        CLEAR     69  45  41 CALM      30.00S
$$

REGIONAL REPORTS...ALBERTA

CITY           SKY/WX    TMP DP  RH WIND       PRES   REMARKS
EDMONTON       CLEAR     59  52  77 W5        30.09S
CALGARY        CLEAR     57  52  82 CALM      30.18F
LETHBRIDGE     CLEAR     54  54 100 SW8       30.17S
MEDICINE HAT   CLEAR     57  55  94 S5        30.12S FOG
WATERTON GATE    N/A     48  46  93 SW2         N/A
MILK RIVER       N/A     54  52  94 W7          N/A
ONEFOUR          N/A     55  52  88 NW8         N/A
$$

REGIONAL REPORTS...SASKATCHEWAN

CITY           SKY/WX    TMP DP  RH WIND       PRES   REMARKS
SWIFT CURRENT  CLOUDY    61 N/A N/A NW12G18   30.05S VSB 1
REGINA         PTCLDY    55  55 100 NW3       30.00S FOG
CYPRESS HILLS    N/A     55  54  94 NW5         N/A
VAL MARIE        N/A     57  55  94 NW7         N/A
ASSINIBOIA       N/A     59  55  88 W5          N/A
$$



USA.gov is the U.S. government's official web portal to all federal, state and local government web resources and services.